Location: Newark
(42.8481°N, 0.4872°E)
Time: 08:55:20
(UTC+00:00)

Transit 2A Rocket - Pass Details

Date: 04 November 2020
Orbit: 588 x 914 km, 66.7° (Epoch: 29 November)

Event Time Altitude Azimuth Distance (km) Brightness Sun altitude
Rises 07:29:04 0° 199° (SSW) 3,531 8.6 7.9°
Reaches altitude 10° 07:31:36 10° 196° (SSW) 2,595 8.0 8.3°
Maximum altitude 07:37:37 64° 116° (ESE) 996 6.2 9.2°
Drops below altitude 10° 07:43:26 10° 37° (NE) 2,520 7.8 10.1°
Sets 07:45:53 0° 34° (NE) 3,423 8.4 10.5°
